OBJECT AB, 57191

Orbit data source: Space-Track

You're viewing an uncataloged RSO

Recently launched and/or uncataloged RSOs may have evolving metadata. Metadata may include the following, but is not limited to: Owner, Manufacturer, Bus, Motor, and Mission.

OBJECT AB, 57191 is a satellite in SSO that was launched on Tue, 27 Jun 2023 UTC via a SOYUZ-2-1B launch vehicle from the Vostochny Cosmodrome (VOSTO). Unknown objects in Earth's orbit typically refer to objects detected orbiting the Earth but have not yet been identified or cataloged. These objects could be anything from previously untracked satellites, spent rocket stages, debris from satellite collisions, or even natural meteoroids temporarily captured by Earth's gravity.

Loading next visibility...
Identifier
57191, 2023-091AB
Orbit
SSO
Country
Flag of TBDTBD
Related business
Manufacturer
STTs
Mission
Operational Amateur Technology
Bus & Motor
CUBESAT 3U, Unknown motor
Mass
5.07 kg wet, 5.07 kg dry
Launch date (UTC)
2023-06-27 (3 years ago)
Launch vehicle
SOYUZ-2-1B
Launch site
Vostochny Cosmodrome (VOSTO)
Object type
Unknown
Shape & HBR
Box, 0.2 m
Radar Cross Section
0.035 m², Medium (>0.1 m² and < 1m²)

Expand to show TLE details & history
Last TLE update: 4 hours ago

TLE from 4 hours ago
0 OBJECT AB
1 57191U 23091AB  26257.17654543  .00003814  00000-0  18080-3 0  9991
2 57191  97.4953 314.3879 0015400 173.3529 186.7913 15.19812062177462
Epoch: 2026-09-14T04:14Z
TLE epoch observation values (Epoch: 2026-09-14T04:14:13.525Z)
Latitude
-0°
Longitude
-102.32905°
Altitude
520.026 km
Speed
7.598 km/s
True Right ascension
20h 57m 33s
True Declination
0° 00' 00"
Sunlit
Object was in full shadow at epoch
Visualization orbit readout
Latitude
Unknown
Longitude
Unknown
Altitude
Unknown
Speed
Unknown
Apparent Right ascension
Unknown
Apparent Declination
Unknown
Sunlit
N/A
Visualization observer readout
Local Sidereal Time
01:04:40
Azimuth
Unknown
Elevation
Unknown
Doppler factor
Unknown
Orbital elements
Apogee altitude
513.976 km
Perigee altitude
492.78 km
Semi-major axis
6,881.515 km
Eccentricity
0.00154
Inclination
97.4953°
RAAN
314.3879°
Arg. of periapsis
173.3529°
True anomaly
186.77047°
Mean anomaly
186.7913°
Eccentric anomaly
186.78088°
Mean motion
3.80204 °/min
Orbital period
94.69 mins
BSTAR
0.0001808
Loading maneuver chart data...
Computing Atmospheric mass density...
Loading historical data...
Loading historical data...
Loading historical data...
Loading historical data...
Loading historical data...
Loading historical data...
Loading historical data...

Documentation

Showing up to 5 results
|